International Skating Union - Official Site

Essent ISU World Cup Heerenveen
March 2-4, 2012

Draw | Lap Times | Index | World Cup

Referee: Hannu  KOIVU  (FIN)
Starter: Andrè  de VRIES  (NED)
StartTime: EndTime: Air Temp: Ice Temp: Humidity:
17:55 19:25
Result 10000m Men Division B
Rankings as of Mar 4 2012 4:51PM
Rank: No.: Name: Nation: Time: Behind: Points:
1 77 Bob  de VRIES NED NED 13:01.19400m - 35.19 - (35.1)
800m - 1:06.12 - (30.9)
1200m - 1:37.75 - (31.6)
1600m - 2:08.77 - (31.0)
2000m - 2:39.91 - (31.1)
2400m - 3:10.58 - (30.6)
2800m - 3:41.40 - (30.8)
3200m - 4:12.26 - (30.8)
3600m - 4:43.07 - (30.8)
4000m - 5:13.75 - (30.6)
4400m - 5:44.63 - (30.8)
4800m - 6:15.40 - (30.7)
5200m - 6:46.12 - (30.7)
5600m - 7:16.85 - (30.7)
6000m - 7:47.70 - (30.8)
6400m - 8:19.22 - (31.5)
6800m - 8:51.06 - (31.8)
7200m - 9:23.00 - (31.9)
7600m - 9:54.59 - (31.5)
8000m - 10:25.98 - (31.3)
8400m - 10:57.31 - (31.3)
8800m - 11:28.44 - (31.1)
9200m - 11:59.53 - (31.0)
9600m - 12:30.29 - (30.7)
10000m - 13:01.19 - (30.9)
35
2 99 Denis  YUSKOV RUS RUS 13:21.07400m - 13:21.07 - (31.2)
800m - 1:06.38 - (31.6)
1200m - 1:37.84 - (31.4)
1600m - 2:09.23 - (31.3)
2000m - 2:40.62 - (31.3)
2400m - 3:11.94 - (31.3)
2800m - 3:43.28 - (31.3)
3200m - 4:14.60 - (31.3)
3600m - 4:46.07 - (31.4)
4000m - 5:17.69 - (31.6)
4400m - 5:49.66 - (31.9)
4800m - 6:21.66 - (32.0)
5200m - 6:53.35 - (31.6)
5600m - 7:25.56 - (32.2)
6000m - 7:57.70 - (32.1)
6400m - 8:30.22 - (32.5)
6800m - 9:02.45 - (32.2)
7200m - 9:34.83 - (32.3)
7600m - 10:07.02 - (32.1)
8000m - 10:39.44 - (32.4)
8400m - 11:11.96 - (32.5)
8800m - 11:44.56 - (32.6)
9200m - 12:16.82 - (32.2)
9600m - 12:49.86 - (33.0)
10000m - 13:21.07 - (31.2)
19.88 30
3 52 Dmitry  BABENKO KAZ KAZ 13:35.17400m - 35.10 - (35.1)
800m - 1:07.06 - (31.9)
1200m - 1:38.78 - (31.7)
1600m - 2:10.04 - (31.2)
2000m - 2:41.46 - (31.4)
2400m - 3:13.19 - (31.7)
2800m - 3:45.11 - (31.9)
3200m - 4:17.11 - (32.0)
3600m - 4:49.00 - (31.8)
4000m - 5:20.91 - (31.9)
4400m - 5:53.07 - (32.1)
4800m - 6:25.54 - (32.4)
5200m - 6:58.17 - (32.6)
5600m - 7:30.82 - (32.6)
6000m - 8:03.60 - (32.7)
6400m - 8:36.34 - (32.7)
6800m - 9:09.24 - (32.9)
7200m - 9:42.56 - (33.3)
7600m - 10:15.47 - (32.9)
8000m - 10:48.38 - (32.9)
8400m - 11:21.67 - (33.2)
8800m - 11:54.77 - (33.1)
9200m - 12:28.15 - (33.3)
9600m - 13:01.69 - (33.5)
10000m - 13:35.17 - (33.4)
33.98 25
4 100 Roger  SCHNEIDER SUI SUI 13:35.71400m - 35.60 - (35.6)
800m - 1:07.47 - (31.8)
1200m - 1:40.35 - (32.8)
1600m - 2:12.97 - (32.6)
2000m - 2:45.21 - (32.2)
2400m - 3:17.25 - (32.0)
2800m - 3:49.67 - (32.4)
3200m - 4:22.46 - (32.7)
3600m - 4:55.07 - (32.6)
4000m - 5:27.60 - (32.5)
4400m - 6:00.64 - (33.0)
4800m - 6:33.22 - (32.5)
5200m - 7:05.97 - (32.7)
5600m - 7:38.68 - (32.7)
6000m - 8:11.37 - (32.6)
6400m - 8:44.34 - (32.9)
6800m - 9:17.40 - (33.0)
7200m - 9:50.19 - (32.7)
7600m - 10:22.86 - (32.6)
8000m - 10:55.61 - (32.7)
8400m - 11:28.12 - (32.5)
8800m - 12:00.56 - (32.4)
9200m - 12:32.13 - (31.5)
9600m - 13:03.73 - (31.6)
10000m - 13:35.71 - (31.9)
34.52 21
5 64 Rob  HADDERS NED NED 13:36.22400m - 35.97 - (35.9)
800m - 1:07.45 - (31.4)
1200m - 1:39.07 - (31.6)
1600m - 2:10.67 - (31.6)
2000m - 2:42.20 - (31.5)
2400m - 3:13.94 - (31.7)
2800m - 3:45.81 - (31.8)
3200m - 4:17.74 - (31.9)
3600m - 4:49.63 - (31.8)
4000m - 5:21.72 - (32.0)
4400m - 5:54.20 - (32.4)
4800m - 6:26.74 - (32.5)
5200m - 6:59.49 - (32.7)
5600m - 7:32.54 - (33.0)
6000m - 8:05.53 - (32.9)
6400m - 8:38.51 - (32.9)
6800m - 9:11.48 - (32.9)
7200m - 9:44.42 - (32.9)
7600m - 10:17.09 - (32.6)
8000m - 10:49.79 - (32.7)
8400m - 11:22.98 - (33.1)
8800m - 11:56.52 - (33.5)
9200m - 12:29.85 - (33.3)
9600m - 13:03.26 - (33.4)
10000m - 13:36.22 - (32.9)
35.03 18
6 105 Patrick  MEEK USA USA 13:40.48400m - 35.19 - (35.1)
800m - 1:08.52 - (33.3)
1200m - 1:41.43 - (32.9)
1600m - 2:14.17 - (32.7)
2000m - 2:46.60 - (32.4)
2400m - 3:18.82 - (32.2)
2800m - 3:51.09 - (32.2)
3200m - 4:23.42 - (32.3)
3600m - 4:55.51 - (32.0)
4000m - 5:27.85 - (32.3)
4400m - 5:59.82 - (31.9)
4800m - 6:32.03 - (32.2)
5200m - 7:04.47 - (32.4)
5600m - 7:36.81 - (32.3)
6000m - 8:09.26 - (32.4)
6400m - 8:41.74 - (32.4)
6800m - 9:14.47 - (32.7)
7200m - 9:47.18 - (32.7)
7600m - 10:20.12 - (32.9)
8000m - 10:52.86 - (32.7)
8400m - 11:25.89 - (33.0)
8800m - 11:59.28 - (33.3)
9200m - 12:32.86 - (33.5)
9600m - 13:06.60 - (33.7)
10000m - 13:40.48 - (33.8)
39.29 15
7 8 Jordan  BELCHOS CAN CAN 13:40.60400m - 35.51 - (35.5)
800m - 1:07.04 - (31.5)
1200m - 1:38.85 - (31.8)
1600m - 2:10.38 - (31.5)
2000m - 2:41.95 - (31.5)
2400m - 3:13.64 - (31.6)
2800m - 3:45.62 - (31.9)
3200m - 4:17.63 - (32.0)
3600m - 4:49.63 - (32.0)
4000m - 5:21.86 - (32.2)
4400m - 5:54.20 - (32.3)
4800m - 6:26.82 - (32.6)
5200m - 6:59.61 - (32.7)
5600m - 7:33.03 - (33.4)
6000m - 8:05.85 - (32.8)
6400m - 8:38.38 - (32.5)
6800m - 9:11.08 - (32.7)
7200m - 9:43.97 - (32.8)
7600m - 10:16.89 - (32.9)
8000m - 10:50.20 - (33.3)
8400m - 11:23.94 - (33.7)
8800m - 11:58.16 - (34.2)
9200m - 12:32.46 - (34.3)
9600m - 13:06.74 - (34.2)
10000m - 13:40.60 - (33.8)
39.41 13
8 82 Fredrik  VAN DER HORST NOR NOR 13:46.43400m - 36.98 - (36.9)
800m - 1:10.04 - (33.0)
1200m - 1:43.09 - (33.0)
1600m - 2:15.62 - (32.5)
2000m - 2:47.94 - (32.3)
2400m - 3:20.17 - (32.2)
2800m - 3:52.87 - (32.7)
3200m - 4:25.70 - (32.8)
3600m - 4:58.70 - (33.0)
4000m - 5:31.79 - (33.0)
4400m - 6:04.49 - (32.7)
4800m - 6:37.01 - (32.5)
5200m - 7:09.55 - (32.5)
5600m - 7:42.01 - (32.4)
6000m - 8:14.59 - (32.5)
6400m - 8:47.09 - (32.5)
6800m - 9:19.71 - (32.6)
7200m - 9:52.30 - (32.5)
7600m - 10:25.12 - (32.8)
8000m - 10:57.81 - (32.6)
8400m - 11:31.06 - (33.2)
8800m - 12:04.89 - (33.8)
9200m - 12:38.72 - (33.8)
9600m - 13:12.66 - (33.9)
10000m - 13:46.43 - (33.7)
45.24 11
9 96 Aleksandr  RUMYANTSEV RUS RUS 13:49.55400m - 36.12 - (36.1)
800m - 1:08.38 - (32.2)
1200m - 1:40.90 - (32.5)
1600m - 2:12.98 - (32.0)
2000m - 2:45.18 - (32.2)
2400m - 3:17.57 - (32.3)
2800m - 3:50.00 - (32.4)
3200m - 4:22.22 - (32.2)
3600m - 4:54.61 - (32.3)
4000m - 5:27.05 - (32.4)
4400m - 5:59.55 - (32.5)
4800m - 6:32.25 - (32.7)
5200m - 7:04.97 - (32.7)
5600m - 7:37.84 - (32.8)
6000m - 8:10.77 - (32.9)
6400m - 8:43.90 - (33.1)
6800m - 9:17.22 - (33.3)
7200m - 9:50.66 - (33.4)
7600m - 10:24.51 - (33.8)
8000m - 10:58.44 - (33.9)
8400m - 11:32.08 - (33.6)
8800m - 12:05.26 - (33.1)
9200m - 12:39.04 - (33.7)
9600m - 13:14.25 - (35.2)
10000m - 13:49.55 - (35.3)
48.36 10
10 31 Ewen  FERNANDEZ FRA FRA 13:52.08400m - 13:52.08 - (32.5)
800m - 1:06.69 - (31.6)
1200m - 1:38.69 - (32.0)
1600m - 2:10.62 - (31.9)
2000m - 2:42.87 - (32.2)
2400m - 3:15.42 - (32.5)
2800m - 3:48.39 - (32.9)
3200m - 4:21.22 - (32.8)
3600m - 4:53.96 - (32.7)
4000m - 5:26.64 - (32.6)
4400m - 5:59.87 - (33.2)
4800m - 6:33.11 - (33.2)
5200m - 7:06.48 - (33.3)
5600m - 7:39.79 - (33.3)
6000m - 8:13.12 - (33.3)
6400m - 8:46.50 - (33.3)
6800m - 9:20.27 - (33.7)
7200m - 9:54.27 - (34.0)
7600m - 10:28.26 - (33.9)
8000m - 11:02.36 - (34.1)
8400m - 11:36.74 - (34.3)
8800m - 12:11.26 - (34.5)
9200m - 12:45.56 - (34.3)
9600m - 13:19.51 - (33.9)
10000m - 13:52.08 - (32.5)
50.89 9
11 47 Hiroki  HIRAKO JPN JPN 13:56.90400m - 35.50 - (35.5)
800m - 1:07.57 - (32.0)
1200m - 1:39.77 - (32.2)
1600m - 2:12.09 - (32.3)
2000m - 2:44.19 - (32.1)
2400m - 3:16.51 - (32.3)
2800m - 3:48.70 - (32.1)
3200m - 4:21.01 - (32.3)
3600m - 4:53.28 - (32.2)
4000m - 5:25.86 - (32.5)
4400m - 5:58.86 - (33.0)
4800m - 6:32.23 - (33.3)
5200m - 7:05.59 - (33.3)
5600m - 7:39.27 - (33.6)
6000m - 8:12.85 - (33.5)
6400m - 8:46.20 - (33.3)
6800m - 9:20.74 - (34.5)
7200m - 9:55.25 - (34.5)
7600m - 10:29.93 - (34.6)
8000m - 11:04.31 - (34.3)
8400m - 11:38.68 - (34.3)
8800m - 12:12.23 - (33.5)
9200m - 12:47.26 - (35.0)
9600m - 13:21.40 - (34.1)
10000m - 13:56.90 - (35.5)
55.71 8
12 45 Luca  STEFANI ITA ITA 14:05.18400m - 36.51 - (36.5)
800m - 1:09.63 - (33.1)
1200m - 1:42.80 - (33.1)
1600m - 2:15.76 - (32.9)
2000m - 2:48.52 - (32.7)
2400m - 3:21.31 - (32.7)
2800m - 3:54.04 - (32.7)
3200m - 4:26.91 - (32.8)
3600m - 4:59.54 - (32.6)
4000m - 5:33.03 - (33.4)
4400m - 6:06.08 - (33.0)
4800m - 6:39.08 - (33.0)
5200m - 7:12.14 - (33.0)
5600m - 7:45.62 - (33.4)
6000m - 8:19.55 - (33.9)
6400m - 8:54.11 - (34.5)
6800m - 9:28.80 - (34.6)
7200m - 10:03.62 - (34.8)
7600m - 10:38.68 - (35.0)
8000m - 11:13.62 - (34.9)
8400m - 11:48.52 - (34.9)
8800m - 12:22.83 - (34.3)
9200m - 12:57.38 - (34.5)
9600m - 13:31.24 - (33.8)
10000m - 14:05.18 - (33.9)
63.99 7
13 20 Stefan  WAPLES CAN CAN 14:10.13400m - 36.02 - (36.0)
800m - 1:08.99 - (32.9)
1200m - 1:41.61 - (32.6)
1600m - 2:14.29 - (32.6)
2000m - 2:47.50 - (33.2)
2400m - 3:20.63 - (33.1)
2800m - 3:53.94 - (33.3)
3200m - 4:27.16 - (33.2)
3600m - 5:00.44 - (33.2)
4000m - 5:34.11 - (33.6)
4400m - 6:08.04 - (33.9)
4800m - 6:42.34 - (34.3)
5200m - 7:16.83 - (34.4)
5600m - 7:51.26 - (34.4)
6000m - 8:25.78 - (34.5)
6400m - 9:00.09 - (34.3)
6800m - 9:34.12 - (34.0)
7200m - 10:08.30 - (34.1)
7600m - 10:42.45 - (34.1)
8000m - 11:16.70 - (34.2)
8400m - 11:51.11 - (34.4)
8800m - 12:25.66 - (34.5)
9200m - 13:00.30 - (34.6)
9600m - 13:35.30 - (35.0)
10000m - 14:10.13 - (34.8)
68.94 6
14 9 Scott  BICKERTON CAN CAN 14:35.95400m - 36.82 - (36.8)
800m - 1:09.48 - (32.6)
1200m - 1:42.98 - (33.5)
1600m - 2:15.45 - (32.4)
2000m - 2:48.46 - (33.0)
2400m - 3:22.04 - (33.5)
2800m - 3:55.60 - (33.5)
3200m - 4:29.11 - (33.5)
3600m - 5:03.08 - (33.9)
4000m - 5:36.98 - (33.9)
4400m - 6:11.16 - (34.1)
4800m - 6:45.39 - (34.2)
5200m - 7:20.00 - (34.6)
5600m - 7:55.00 - (35.0)
6000m - 8:30.22 - (35.2)
6400m - 9:06.35 - (36.1)
6800m - 9:42.08 - (35.7)
7200m - 10:17.65 - (35.5)
7600m - 10:53.16 - (35.5)
8000m - 11:29.37 - (36.2)
8400m - 12:05.84 - (36.4)
8800m - 12:43.20 - (37.3)
9200m - 13:20.57 - (37.3)
9600m - 13:58.24 - (37.6)
10000m - 14:35.95 - (37.7)
94.76 5